Regional Weather Roundup
Issued by NWS

Home | Current Version | Previous Version | Graphics & Text | Print | Product List | Glossary On
Versions: 1 2 3 4 5 6 7 8 9 10 11 12 13 14 15 16 17 18 19 20 21 22 23 24 25 26 27 28 29 30 31 32 33 34 35 36 37 38 39 40 41 42 43 44 45 46 47 48 49 50
000
ASUS45 KCYS 212310
RWRWY

WYOMING REGIONAL WEATHER ROUNDUP
NATIONAL WEATHER SERVICE CHEYENNE WY
500 PM MDT SUN SEP 21 2014

NOTE:  "FAIR" INDICATES FEW OR NO CLOUDS BELOW 12,000 FEET
WITH NO SIGNIFICANT WEATHER AND/OR OBSTRUCTIONS TO VISIBILITY.

WYZ001-220000-
YELLOWSTONE NATIONAL PARK

CITY           SKY/WX    TMP DP  RH WIND       PRES   REMARKS
LK YELLOWSTONE   N/A     67  34  29 CALM      30.33F
W YELLOWSTONE  NOT AVBL

$$
WYZ002>013-054>058-071-098>099-220000-
NORTHERN WYOMING

CITY           SKY/WX    TMP DP  RH WIND       PRES   REMARKS
JACKSON        CLOUDY    73  39  29 S14G20    30.24F
CODY             N/A    N/A N/A N/A MISG        N/A
GREYBULL       MOSUNNY   80  40  23 S7        30.13F
WORLAND        PTSUNNY   77  44  30 NW6       30.14F
SHERIDAN       SUNNY     77  42  28 SE12      30.17F
BUFFALO        MOSUNNY   74  41  30 S12       30.24F
GILLETTE       SUNNY     74  39  28 SE9       30.23F
HULETT         FAIR      72  37  28 MISG      30.26
NEWCASTLE      FAIR      73  32  21 S8        30.26

$$
WYZ014>020-022>026-101>103-220000-
CENTRAL WYOMING

CITY           SKY/WX    TMP DP  RH WIND       PRES   REMARKS
BIG PINEY      LGT RAIN  57  49  74 SW12      30.33S
PINEDALE       CLOUDY    63  37  39 S10G21    30.33S
DUBOIS         FAIR      63  34  34 SE8       30.32F
LANDER         PTSUNNY   71  41  33 SE6       30.21F
RIVERTON       PTSUNNY   73  38  27 SE7       30.23F
CASPER         PTSUNNY   76  41  28 E10G20    30.23F
DOUGLAS        PTSUNNY   73  42  32 SE17G25   30.26F

$$
WYZ021-027>030-104>119-220000-
SOUTHERN WYOMING

CITY           SKY/WX    TMP DP  RH WIND       PRES   REMARKS
EVANSTON       LGT RAIN  53  50  89 E10       30.31S FOG
KEMMERER       LGT RAIN  52  50  93 NE7       30.32F
FORT BRIDGER   CLOUDY    53  51  92 CALM      30.34R
ROCK SPRINGS   CLOUDY    64  45  49 CALM      30.29F
DIXON          MOCLDY    67  47  48 E8        30.31F
RAWLINS        MOSUNNY   69  43  38 S9        30.31F
SARATOGA       FAIR      70  45  40 S12       30.33F
LARAMIE        LGT RAIN  61  48  62 S9        30.37R
CHEYENNE       PTSUNNY   67  44  43 SE10      30.33S
TORRINGTON     MOSUNNY   71  41  33 E16       30.25F
PINE BLUFFS    FAIR      66  41  39 SE13      30.31S

$$



USA.gov is the U.S. government's official web portal to all federal, state and local government web resources and services.